Hourly Weather Rupeyki

Today, 21 April, Wednesday

Time Temperature Precipitation Wind Pressure Humidity
00:00 +6°C° 0 mm 2 mps 741 mmHg 88%
01:00 +6°C° 0 mm 2 mps 741 mmHg 89%
02:00 +5°C° 0 mm 2 mps 741 mmHg 91%
03:00 +5°C° 0 mm 2 mps 740 mmHg 91%
04:00 +5°C° 0 mm 2 mps 740 mmHg 91%
05:00 +4°C° 0 mm 2 mps 740 mmHg 91%
06:00 +6°C° 0 mm 2 mps 740 mmHg 85%
07:00 +7°C° 0 mm 2 mps 740 mmHg 79%
08:00 +9°C° 0 mm 3 mps 740 mmHg 74%
09:00 +10°C° 0.2 mm 3 mps 740 mmHg 66%
10:00 +12°C° 0.2 mm 3 mps 740 mmHg 59%
11:00 +13°C° 0.2 mm 4 mps 740 mmHg 52%
12:00 +13°C° 0.1 mm 4 mps 740 mmHg 51%
13:00 +14°C° 0.1 mm 4 mps 740 mmHg 50%
14:00 +14°C° 0.1 mm 3 mps 739 mmHg 49%
15:00 +14°C° 0.1 mm 3 mps 739 mmHg 51%
16:00 +13°C° 0.1 mm 3 mps 739 mmHg 54%
17:00 +13°C° 0.1 mm 3 mps 739 mmHg 56%
18:00 +12°C° 0 mm 3 mps 739 mmHg 61%
19:00 +12°C° 0 mm 2 mps 739 mmHg 66%
20:00 +10°C° 0 mm 2 mps 739 mmHg 71%
21:00 +9°C° 0 mm 2 mps 739 mmHg 73%
22:00 +8°C° 0 mm 2 mps 740 mmHg 75%
23:00 +8°C° 0 mm 2 mps 740 mmHg 77%

Tomorrow, 22 April, Thursday

Time Temperature Precipitation Wind Pressure Humidity
00:00 +7°C° 0 mm 2 mps 740 mmHg 79%
01:00 +7°C° 0 mm 3 mps 739 mmHg 82%
02:00 +5°C° 0 mm 3 mps 739 mmHg 84%
03:00 +5°C° 0 mm 3 mps 739 mmHg 86%
04:00 +5°C° 0 mm 3 mps 739 mmHg 89%
05:00 +4°C° 0 mm 3 mps 739 mmHg 91%
06:00 +5°C° 0.1 mm 4 mps 739 mmHg 87%
07:00 +6°C° 0.1 mm 4 mps 740 mmHg 83%
08:00 +7°C° 0.1 mm 5 mps 740 mmHg 80%
09:00 +7°C° 0 mm 5 mps 740 mmHg 77%
10:00 +7°C° 0 mm 6 mps 741 mmHg 75%
11:00 +7°C° 0 mm 6 mps 741 mmHg 73%
12:00 +7°C° 0 mm 6 mps 741 mmHg 63%
13:00 +8°C° 0 mm 7 mps 741 mmHg 54%
14:00 +7°C° 0 mm 8 mps 741 mmHg 45%
15:00 +8°C° 0 mm 7 mps 741 mmHg 46%
16:00 +8°C° 0 mm 7 mps 741 mmHg 47%
17:00 +8°C° 0 mm 6 mps 741 mmHg 48%
18:00 +5°C° 0 mm 6 mps 742 mmHg 54%
19:00 +5°C° 0 mm 5 mps 742 mmHg 60%
20:00 +2°C° 0 mm 5 mps 743 mmHg 66%
21:00 +2°C° 0 mm 5 mps 742 mmHg 70%
22:00 +1°C° 0 mm 4 mps 742 mmHg 74%
23:00 +1°C° 0 mm 4 mps 742 mmHg 78%

Day after tomorrow, 23 April, Friday

Time Temperature Precipitation Wind Pressure Humidity
00:00 +1°C° 0 mm 5 mps 742 mmHg 77%
01:00 0°C° 0 mm 5 mps 742 mmHg 76%
02:00 0°C° 0 mm 5 mps 742 mmHg 76%
03:00 0°C° 0 mm 5 mps 742 mmHg 79%
04:00 -1°C° 0 mm 5 mps 742 mmHg 82%
05:00 -1°C° 0 mm 5 mps 742 mmHg 85%
06:00 0°C° 0 mm 5 mps 743 mmHg 82%
07:00 -1°C° 0 mm 6 mps 743 mmHg 78%
08:00 +1°C° 0 mm 6 mps 743 mmHg 74%
09:00 +2°C° 0.1 mm 6 mps 743 mmHg 67%
10:00 +3°C° 0.1 mm 6 mps 743 mmHg 60%
11:00 +4°C° 0.1 mm 6 mps 743 mmHg 53%
12:00 +5°C° 0.1 mm 6 mps 743 mmHg 49%
13:00 +5°C° 0.1 mm 7 mps 743 mmHg 46%
14:00 +6°C° 0.1 mm 8 mps 743 mmHg 42%
15:00 +5°C° 0.2 mm 7 mps 744 mmHg 47%
16:00 +5°C° 0.2 mm 6 mps 744 mmHg 51%
17:00 +4°C° 0.2 mm 6 mps 744 mmHg 56%
18:00 +3°C° 0.1 mm 5 mps 744 mmHg 63%
19:00 +3°C° 0.1 mm 4 mps 744 mmHg 69%
20:00 +2°C° 0.1 mm 3 mps 745 mmHg 76%
21:00 0°C° 0 mm 4 mps 745 mmHg 78%
22:00 0°C° 0 mm 4 mps 745 mmHg 80%
23:00 -1°C° 0 mm 4 mps 745 mmHg 82%

24 April, Saturday

Time Temperature Precipitation Wind Pressure Humidity
00:00 -1°C° 0 mm 5 mps 745 mmHg 83%
01:00 -1°C° 0 mm 5 mps 745 mmHg 83%
02:00 -2°C° 0 mm 5 mps 745 mmHg 84%
03:00 -2°C° 0 mm 5 mps 745 mmHg 85%
04:00 -2°C° 0 mm 5 mps 745 mmHg 85%
05:00 -2°C° 0 mm 5 mps 745 mmHg 85%
06:00 -3°C° 0.1 mm 6 mps 745 mmHg 85%
07:00 -2°C° 0.1 mm 6 mps 745 mmHg 86%
08:00 -1°C° 0.1 mm 6 mps 745 mmHg 86%
09:00 +1°C° 0.1 mm 6 mps 745 mmHg 76%
10:00 +2°C° 0.1 mm 6 mps 745 mmHg 67%
11:00 +3°C° 0.1 mm 6 mps 745 mmHg 57%
12:00 +4°C° 0.3 mm 6 mps 745 mmHg 55%
13:00 +4°C° 0.3 mm 7 mps 745 mmHg 54%
14:00 +5°C° 0.3 mm 7 mps 745 mmHg 52%
15:00 +4°C° 0.2 mm 7 mps 745 mmHg 54%
16:00 +4°C° 0.2 mm 7 mps 745 mmHg 57%
17:00 +4°C° 0.2 mm 6 mps 745 mmHg 59%
18:00 +2°C° 0.1 mm 5 mps 745 mmHg 63%
19:00 +1°C° 0.1 mm 4 mps 745 mmHg 68%
20:00 +1°C° 0.1 mm 3 mps 745 mmHg 72%
21:00 0°C° 0 mm 3 mps 745 mmHg 75%
22:00 -2°C° 0 mm 4 mps 745 mmHg 78%
23:00 -3°C° 0 mm 4 mps 745 mmHg 80%

25 April, Sunday

Time Temperature Precipitation Wind Pressure Humidity
00:00 -4°C° 0 mm 5 mps 745 mmHg 82%
01:00 -4°C° 0 mm 5 mps 745 mmHg 83%
02:00 -4°C° 0 mm 6 mps 745 mmHg 85%
03:00 -4°C° 0 mm 6 mps 744 mmHg 85%
04:00 -3°C° 0 mm 6 mps 744 mmHg 85%
05:00 -3°C° 0 mm 7 mps 744 mmHg 85%
06:00 -2°C° 0 mm 7 mps 744 mmHg 82%
07:00 -2°C° 0 mm 7 mps 744 mmHg 79%
08:00 -1°C° 0 mm 8 mps 744 mmHg 76%
09:00 0°C° 0.1 mm 8 mps 744 mmHg 71%
10:00 +1°C° 0.1 mm 8 mps 744 mmHg 65%
11:00 +2°C° 0.1 mm 8 mps 745 mmHg 60%
12:00 +2°C° 0.2 mm 8 mps 744 mmHg 57%
13:00 +4°C° 0.2 mm 8 mps 744 mmHg 53%
14:00 +3°C° 0.2 mm 9 mps 744 mmHg 50%
15:00 +4°C° 0.1 mm 8 mps 744 mmHg 55%
16:00 +2°C° 0.1 mm 8 mps 744 mmHg 59%
17:00 +2°C° 0.1 mm 8 mps 744 mmHg 64%
18:00 +2°C° 0 mm 7 mps 745 mmHg 68%
19:00 +1°C° 0 mm 6 mps 745 mmHg 72%
20:00 0°C° 0 mm 5 mps 745 mmHg 76%
21:00 -1°C° 0 mm 5 mps 745 mmHg 81%
22:00 -2°C° 0 mm 4 mps 745 mmHg 86%
23:00 -2°C° 0 mm 3 mps 745 mmHg 91%

26 April, Monday

Time Temperature Precipitation Wind Pressure Humidity
00:00 -3°C° 0 mm 4 mps 745 mmHg 92%
01:00 -3°C° 0 mm 4 mps 745 mmHg 93%
02:00 -4°C° 0 mm 4 mps 745 mmHg 95%
03:00 -3°C° 0 mm 4 mps 745 mmHg 93%
04:00 -3°C° 0 mm 4 mps 744 mmHg 91%
05:00 -3°C° 0 mm 4 mps 744 mmHg 89%
06:00 -2°C° 0.1 mm 5 mps 744 mmHg 87%
07:00 -1°C° 0.1 mm 5 mps 744 mmHg 84%
08:00 -1°C° 0.1 mm 6 mps 744 mmHg 81%
09:00 0°C° 0.1 mm 5 mps 745 mmHg 81%
10:00 +1°C° 0.1 mm 5 mps 745 mmHg 81%
11:00 +1°C° 0.1 mm 5 mps 745 mmHg 81%
12:00 +2°C° 0.1 mm 5 mps 745 mmHg 76%
13:00 +2°C° 0.1 mm 5 mps 745 mmHg 72%
14:00 +3°C° 0.1 mm 5 mps 745 mmHg 68%
15:00 +3°C° 0 mm 5 mps 745 mmHg 68%
16:00 +3°C° 0 mm 5 mps 745 mmHg 69%
17:00 +4°C° 0 mm 4 mps 745 mmHg 70%
18:00 +3°C° 0 mm 4 mps 745 mmHg 75%
19:00 +3°C° 0 mm 3 mps 745 mmHg 79%
20:00 +2°C° 0 mm 3 mps 745 mmHg 84%
21:00 +2°C° 0 mm 3 mps 745 mmHg 87%
22:00 +2°C° 0 mm 3 mps 745 mmHg 90%
23:00 +1°C° 0 mm 4 mps 745 mmHg 93%
Show more